カタログに戻る

STARLINK-30233

運用中通信VLEO
NORAD 57302·PAYLOAD·🇺🇸 United States

打ち上げ Jul 10, 2023 から Cape Canaveral Space Force Station

Loading…

次のパス (今後24時間)

TLE

最新Source: CelesTrak SupGP

元期: Sep 15, 2026, 02:21 UTC

1 57302C 23096N   26258.09840278  .00503100  00000+0  60446-2 0  2586
2 57302  42.9997 228.3715 0001912 270.9173  91.6396 15.59710669    13

AllMySatでSTARLINK-30233をリアルタイム追跡

Download on the App Store